Home   Weather   San Diego   Past weeks

Flag for USA Past Weather in San Diego, California, USA — Yesterday and Last 2 Weeks

Now
77 °F

Scattered clouds.


Feels Like: 79 °F
Forecast: 69 / 83 °F
Wind: 8 mph from West

Location: San Diego - North Island

Current Time: Sep 29, 2016 at 4:57:32 PM

Latest Report: Sep 29, 2016 at 3:52 PM


Visibility: 10 mi

Pressure: 29.98 "Hg

Humidity: 64%

Dew Point: 64 °F

Location of San DiegoLocation

Past Weather in San Diego — Graph

°F

San Diego Temperature Yesterday

Maximum temperature yesterday: 86 °F (at 11:52 AM)
Minimum temperature yesterday: 66 °F (at 6:52 AM)
Average temperature yesterday: 76 °F

High & Low Weather Summary for the Past Weeks

 TemperatureHumidityPressure
High101 °F (Sep 26, 2:52 PM)100% (Sep 18, 5:52 AM)30.03 "Hg (Sep 18, 5:52 AM)
Low57 °F (Sep 15, 6:52 AM)11% (Sep 26, 11:52 AM)29.81 "Hg (Sep 27, 4:52 AM)
Average70 °F70%29.92 "Hg
* Reported Sep 14 2:52 PM — Sep 29 2:52 PM, San Diego, Weather by CustomWeather, © 2016

Note: Actual official high and low records may vary slightly from our data, if they occured in-between our weather recording intervals... More about our weather records

Advertising

San Diego Weather History for the Previous 24 Hours

Scroll right to see more
 ConditionsComfort  
Time TempWeatherWind HumidityBarometerVisibility
2:52 PM
Thu, Sep 29
79 °FScattered clouds.8 mph58%29.99 "Hg10 mi
1:52 PM80 °FPassing clouds.9 mph58%30.00 "Hg10 mi
12:52 PM82 °FPassing clouds.8 mph51%30.01 "Hg10 mi
11:52 AM82 °FPassing clouds.9 mph46%30.02 "Hg10 mi
10:52 AM81 °FPassing clouds.3 mph44%30.03 "Hg10 mi
9:52 AM76 °FPassing clouds.5 mph50%30.02 "Hg10 mi
8:52 AM77 °FPassing clouds.No wind45%30.00 "Hg10 mi
7:52 AM71 °FPassing clouds.No wind61%29.99 "Hg5 mi
6:52 AM68 °FPassing clouds.5 mph68%29.97 "Hg10 mi
5:52 AM69 °FPassing clouds.3 mph66%29.95 "Hg9 mi
4:52 AM70 °FPassing clouds.5 mph61%29.95 "Hg9 mi
3:52 AM69 °FPassing clouds.6 mph68%29.94 "Hg9 mi
2:52 AM67 °FPassing clouds.No wind79%29.94 "Hg9 mi
1:52 AM70 °FPassing clouds.5 mph61%29.94 "Hg10 mi
12:52 AM70 °FPassing clouds.No wind66%29.94 "Hg10 mi
11:52 PM
Wed, Sep 28
73 °FPassing clouds.3 mph57%29.94 "Hg10 mi
10:52 PM74 °FPassing clouds.6 mph53%29.95 "Hg10 mi
9:52 PM72 °FPassing clouds.3 mph64%29.94 "Hg10 mi
8:52 PM74 °FPassing clouds.8 mph67%29.94 "Hg10 mi
7:52 PM71 °FPassing clouds.6 mph81%29.92 "Hg10 mi
6:52 PM75 °FPassing clouds.5 mph55%29.91 "Hg10 mi
5:52 PM79 °FScattered clouds.5 mph32%29.88 "Hg10 mi
4:52 PM79 °FScattered clouds.13 mph45%29.88 "Hg10 mi
Weather by CustomWeather, © 2016

See weather overviewHow to use our weather pages